GW3498 Weather Reports


Display with metric or nautical units.
time (UTC)temp
F
wind
direction
speed
MPH
gust
MPH
rain 1hr
in
rain 24hr
in
rain mn
in
humidity
%
barometer
mb
20260505175517 58 181 0.0 1.0 0.00 0.36 0.36 79 1014.5
20260505174531 59 163 0.0 2.0 0.00 0.36 0.36 78 1014.5
20260505173526 59 160 0.0 1.0 0.00 0.36 0.36 78 1014.7
20260505172520 59 137 0.0 1.0 0.00 0.36 0.36 76 1014.7
20260505171535 60 137 1.0 2.0 0.00 0.36 0.36 76 1014.8
20260505170530 60 157 0.0 1.0 0.00 0.36 0.36 76 1014.8
20260505165525 61 160 1.0 6.0 0.00 0.36 0.36 76 1014.9
20260505164520 61 179 0.0 2.0 0.00 0.36 0.36 74 1014.9
20260505163535 62 156 1.0 3.0 0.00 0.36 0.36 72 1014.8
20260505162548 63 170 1.0 3.0 0.00 0.36 0.36 71 1014.6
20260505161542 62 200 1.0 3.0 0.00 0.36 0.36 73 1014.7
20260505160517 62 165 1.0 3.0 0.00 0.36 0.36 73 1014.7
20260505152536 64 164 2.0 7.0 0.00 0.36 0.36 70 1015.0
20260505151531 62 167 1.0 2.0 0.00 0.36 0.36 73 1015.0
20260505150524 63 174 1.0 3.0 0.00 0.36 0.36 73 1015.1
20260505140533 60 169 1.0 2.0 0.00 0.36 0.36 78 1015.4
20260505124531 60 173 1.0 2.0 0.00 0.36 0.36 79 1016.0
20260505123527 61 182 1.0 2.0 0.00 0.36 0.36 78 1016.0
20260505122541 62 182 1.0 4.0 0.00 0.36 0.36 77 1016.0
20260505120529 62 174 2.0 7.0 0.00 0.36 0.36 77 1016.1
20260505115523 62 174 1.0 3.0 0.00 0.36 0.36 78 1016.2
20260505114518 60 178 1.0 3.0 0.00 0.36 0.36 81 1016.3
20260505113531 59 192 1.0 4.0 0.00 0.36 0.36 83 1016.2
20260505112546 58 172 1.0 3.0 0.00 0.36 0.36 86 1016.3
20260505111523 58 208 1.0 3.0 0.00 0.36 0.36 88 1016.5
20260505110535 58 170 1.0 3.0 0.00 0.36 0.36 89 1016.7
20260505101526 58 173 1.0 3.0 0.00 0.36 0.36 89 1016.5
20260505100541 58 194 1.0 4.0 0.00 0.36 0.36 91 1016.5
20260505095535 58 149 1.0 6.0 0.00 0.36 0.36 91 1016.4
20260505094531 57 169 1.0 3.0 0.00 0.36 0.36 92 1016.3
20260505093545 56 168 2.0 7.0 0.00 0.36 0.36 93 1016.3
20260505092540 56 186 1.0 2.0 0.00 0.36 0.36 94 1016.4
20260505091534 56 176 1.0 3.0 0.00 0.36 0.36 94 1016.5
20260505090528 56 156 1.0 3.0 0.00 0.36 0.36 94 1016.6
20260505085542 55 190 1.0 2.0 0.00 0.36 0.36 95 1016.3
20260505084517 54 193 1.0 2.0 0.00 0.36 0.36 96 1016.4
20260505083554 54 164 1.0 3.0 0.00 0.36 0.36 97 1016.4
20260505082527 54 119 0.0 2.0 0.00 0.36 0.36 97 1016.4
20260505081521 53 131 1.0 6.0 0.00 0.36 0.36 97 1016.5
20260505080535 53 149 1.0 3.0 0.00 0.36 0.36 98 1016.2
20260505075549 54 164 1.0 3.0 0.00 0.36 0.36 98 1016.2
20260505074525 54 203 1.0 4.0 0.00 0.36 0.36 99 1016.1
20260505073518 54 157 1.0 2.0 0.00 0.36 0.36 99 1016.3
20260505072534 53 153 1.0 3.0 0.03 0.36 0.36 99 1016.4
20260505071528 53 168 1.0 3.0 0.11 0.36 0.36 99 1016.3
20260505070523 53 165 1.0 4.0 0.13 0.36 0.36 99 1016.2
20260505065539 52 166 1.0 3.0 0.17 0.36 0.36 99 1016.3
20260505064532 52 137 0.0 2.0 0.19 0.36 0.36 99 1016.4
20260505063527 51 148 1.0 2.0 0.20 0.36 0.36 99 1016.2
20260505062522 51 236 1.0 2.0 0.17 0.33 0.33 99 1016.1
20260505061535 52 197 1.0 4.0 0.09 0.25 0.25 99 1016.3
20260505060551 52 170 1.0 2.0 0.07 0.23 0.23 99 1016.3
20260505055524 52 186 1.0 2.0 0.03 0.19 0.19 98 1016.3
20260505054519 52 166 0.0 1.0 0.01 0.17 0.17 98 1016.2
20260505053533 52 186 0.0 1.0 0.01 0.16 0.16 98 1015.9
20260505052528 52 177 1.0 1.0 0.02 0.16 0.16 98 1015.9
20260505051543 52 174 1.0 1.0 0.03 0.16 0.16 98 1015.8
20260505050535 52 153 0.0 1.0 0.04 0.16 0.16 98 1016.0
20260505041528 52 0.0 0.0 0.10 0.13 0.13 96 1015.8
20260505040543 52 0.0 0.0 0.10 0.12 0.12 95 1015.6
20260505035517 52 230 0.0 1.0 0.11 0.11 0.11 95 1015.6
20260505034531 52 319 0.0 1.0 0.09 0.09 0.09 94 1015.7
20260505033526 52 3 1.0 3.0 0.07 0.07 0.07 93 1015.7
20260505032541 52 12 0.0 1.0 0.06 0.06 0.06 91 1015.8
20260505031536 53 6 1.0 2.0 0.03 0.03 0.03 89 1015.9
20260505030549 54 174 0.0 1.0 0.02 0.02 0.02 85 1015.9
20260505025525 54 294 0.0 1.0 0.00 0.00 0.00 79 1016.0
20260505024519 54 177 1.0 2.0 0.00 0.00 0.00 82 1015.9
20260505023534 54 0.0 0.0 0.00 0.00 0.00 85 1016.0
20260505022548 54 209 1.0 4.0 0.00 0.00 0.00 84 1015.9
20260505021522 54 309 0.0 1.0 0.00 0.00 0.00 85 1015.9
20260505020517 55 196 0.0 1.0 0.00 0.00 0.00 84 1016.0
20260505015534 55 162 0.0 1.0 0.00 0.00 0.00 83 1016.0
20260505014526 55 176 0.0 1.0 0.00 0.00 0.00 82 1016.0
20260505013520 55 0.0 0.0 0.00 0.00 0.00 81 1016.2
20260505012536 55 152 0.0 1.0 0.00 0.00 0.00 80 1016.1
20260505011530 55 0.0 0.0 0.00 0.00 0.00 79 1016.2
20260505010545 55 94 0.0 1.0 0.00 0.00 0.00 79 1016.4
20260505005519 55 0.0 0.0 0.00 0.00 0.00 78 1016.4
20260505004535 55 0.0 0.0 0.00 0.00 0.00 78 1016.4
20260505003534 55 0.0 0.0 0.00 0.00 0.00 78 1016.5
20260505002524 56 0.0 0.0 0.00 0.00 0.00 76 1016.7
20260505001520 56 104 0.0 1.0 0.00 0.00 0.00 75 1017.1
20260505000534 56 0.0 0.0 0.00 0.00 0.00 75 1017.2
20260504235528 55 0.0 0.0 0.00 0.00 0.00 73 1017.0
20260504234524 55 0.0 0.0 0.00 0.00 0.00 71 1017.1
20260504233517 55 0.0 0.0 0.00 0.00 0.00 72 1017.1
20260504232532 56 0.0 0.0 0.00 0.00 0.00 69 1017.2
20260504231527 56 0.0 0.0 0.00 0.00 0.00 66 1017.3
20260504230522 56 0.0 0.0 0.00 0.00 0.00 66 1017.6
20260504225516 57 0.0 0.0 0.00 0.00 0.00 65 1017.7
20260504224531 57 12 0.0 1.0 0.00 0.00 0.00 64 1017.7
20260504223527 56 18 1.0 1.0 0.00 0.00 0.00 64 1017.7
20260504222520 56 0.0 0.0 0.00 0.00 0.00 64 1017.7
20260504221535 56 4 0.0 1.0 0.00 0.00 0.00 64 1017.7
20260504220529 56 26 0.0 1.0 0.00 0.00 0.00 64 1017.7
20260504215544 57 20 0.0 1.0 0.00 0.00 0.00 60 1017.8
20260504214518 56 22 1.0 2.0 0.00 0.00 0.00 61 1017.8
20260504213532 56 12 0.0 1.0 0.00 0.00 0.00 66 1017.8
20260504212526 56 16 0.0 1.0 0.00 0.00 0.00 68 1017.8
20260504211521 55 22 1.0 1.0 0.00 0.00 0.00 71 1017.8
20260504210517 55 25 0.0 1.0 0.00 0.00 0.00 75 1018.1
20260504205552 54 31 1.0 1.0 0.00 0.00 0.00 79 1018.3
20260504204527 55 0.0 0.0 0.00 0.00 0.00 80 1018.2
20260504203522 55 31 0.0 1.0 0.00 0.00 0.00 80 1018.3
20260504202517 55 24 0.0 1.0 0.00 0.00 0.00 78 1018.2
20260504201555 55 25 0.0 1.0 0.00 0.00 0.00 76 1018.0
20260504200528 55 203 0.0 1.0 0.00 0.00 0.00 75 1017.8
20260504195524 55 0.0 0.0 0.00 0.00 0.00 77 1017.9
20260504194519 56 0.0 0.0 0.00 0.00 0.00 78 1017.9
20260504193534 56 0.0 0.0 0.00 0.00 0.00 79 1018.2
20260504192531 56 0.0 0.0 0.00 0.00 0.00 79 1018.0
20260504191525 56 40 0.0 1.0 0.00 0.00 0.00 79 1017.9
20260504190523 56 0.0 0.0 0.00 0.00 0.00 78 1017.8
20260504185616 57 16 0.0 1.0 0.00 0.00 0.00 77 1017.8
20260504184531 57 57 0.0 1.0 0.00 0.00 0.00 76 1017.7
20260504183547 57 136 1.0 2.0 0.00 0.00 0.00 74 1017.7
20260504182543 57 9 0.0 1.0 0.00 0.00 0.00 72 1017.6
20260504181516 57 0.0 0.0 0.00 0.00 0.00 70 1017.8
20260504180534 58 0.0 0.0 0.00 0.00 0.00 72 1017.6